contact:dominique.lefevre@mio.osupytheas.fr, maurice.libes@osupytheas.fr, didier.mallarino@osupytheas.fr
Project:EMSO http://www.emso-fr.org/EMSO-France
Depth: 2436.0 m
Title:EMSO Ligure Ouest : Data MII capteur AQUADOPP
Date,Latitude,Longitude,X_East,Y_North,Z_Up,Amplitude_X,Amplitude_Y,Amplitude_Z,Batterie,SoundSpeed,Heading,Pitch,Roll,Pressure,TIS,Speed,Direction
, degrees North, degrees East, m.s-1, m.s-1,m.s-1, 1, 1, 1, Volt, m.s-1, degree, degree, degree, dbar, degree_C, m.s-1, degree
2023-09-22T00:04:03,42.805,6.029,0.012,0.012,-0.004,102.0,102.0,101.0,13.3,1505.2,353.1,-0.8,1.8,2471.568,13.29,0.016,45.0
2023-09-22T00:07:03,42.805,6.029,-0.02,0.009,-0.008,102.0,102.0,101.0,13.3,1505.2,353.0,-0.8,1.8,2471.583,13.29,0.021,294.2
2023-09-22T00:10:03,42.805,6.029,0.028,-0.024,-0.021,103.0,102.0,101.0,13.4,1505.2,327.3,-0.8,1.8,2471.552,13.29,0.036,130.6
2023-09-22T00:13:03,42.805,6.029,-0.025,0.005,-0.013,102.0,103.0,102.0,13.4,1505.2,335.5,-0.8,1.8,2471.554,13.29,0.025,281.3
2023-09-22T00:16:03,42.805,6.029,-0.008,-0.019,-0.04,102.0,101.0,102.0,13.4,1505.2,346.2,-0.7,1.8,2471.505,13.29,0.02,202.8
2023-09-22T00:19:03,42.805,6.029,-0.017,0.028,0.0,103.0,101.0,101.0,13.4,1505.2,326.3,-0.8,1.8,2471.516,13.29,0.032,328.7
2023-09-22T00:22:03,42.805,6.029,-0.035,0.006,-0.035,102.0,101.0,102.0,13.4,1505.2,345.7,-0.8,1.8,2471.495,13.29,0.035,279.7
2023-09-22T00:25:03,42.805,6.029,-0.008,-0.016,-0.024,100.0,103.0,101.0,13.4,1505.2,334.9,-0.8,1.8,2471.521,13.29,0.017,206.6
2023-09-22T00:28:03,42.805,6.029,-0.006,0.002,-0.027,100.0,102.0,102.0,13.4,1505.2,347.4,-0.8,1.8,2471.51,13.29,0.006,288.4
2023-09-22T00:31:03,42.805,6.029,-0.044,0.014,-0.044,103.0,103.0,101.0,13.4,1505.2,331.0,-0.8,1.8,2471.443,13.29,0.046,287.6
2023-09-22T00:34:03,42.805,6.029,-0.008,-0.022,-0.032,102.0,103.0,101.0,13.4,1505.2,346.7,-0.8,1.8,2471.498,13.29,0.023,200.0
2023-09-22T00:37:03,42.805,6.029,-0.026,0.004,-0.005,103.0,102.0,101.0,13.4,1505.2,345.7,-0.8,1.9,2471.531,13.29,0.026,278.7
2023-09-22T00:40:03,42.805,6.029,0.001,0.001,-0.043,102.0,102.0,101.0,13.3,1505.2,337.3,-0.7,1.8,2471.481,13.29,0.001,45.0
2023-09-22T00:43:03,42.805,6.029,-0.041,-0.015,-0.07,102.0,102.0,102.0,13.3,1505.2,333.8,-0.8,1.8,2471.534,13.29,0.043,249.9
2023-09-22T00:46:03,42.805,6.029,-0.002,-0.008,-0.043,102.0,102.0,101.0,13.4,1505.2,356.7,-0.8,1.8,2471.529,13.29,0.008,194.0
2023-09-22T00:49:03,42.805,6.029,-0.007,0.0,0.003,103.0,103.0,100.0,13.4,1505.2,335.8,-0.7,1.8,2471.5,13.29,0.007,270.0
2023-09-22T00:52:03,42.805,6.029,-0.015,-0.008,-0.013,103.0,102.0,101.0,13.3,1505.2,336.0,-0.8,1.8,2471.539,13.29,0.017,241.9
2023-09-22T00:55:03,42.805,6.029,-0.019,-0.012,-0.028,103.0,102.0,101.0,13.4,1505.2,327.6,-0.7,1.8,2471.468,13.29,0.022,237.7
2023-09-22T00:58:03,42.805,6.029,-0.015,0.006,-0.021,102.0,103.0,101.0,13.3,1505.2,339.7,-0.7,1.8,2471.503,13.29,0.016,291.8
2023-09-22T01:04:03,42.805,6.029,-0.044,-0.005,-0.033,103.0,103.0,102.0,13.4,1505.2,323.4,-0.8,1.8,2471.538,13.29,0.044,263.5
2023-09-22T01:07:03,42.805,6.029,-0.039,0.018,-0.044,101.0,102.0,101.0,13.4,1505.2,340.9,-0.8,1.9,2471.498,13.29,0.042,294.8
2023-09-22T01:10:03,42.805,6.029,-0.019,0.018,-0.024,102.0,102.0,102.0,13.4,1505.2,355.8,-0.8,1.8,2471.586,13.29,0.026,313.5
2023-09-22T01:13:03,42.805,6.029,-0.008,0.007,-0.016,103.0,102.0,102.0,13.4,1505.2,334.8,-0.8,1.8,2471.533,13.29,0.01,311.2
2023-09-22T01:16:03,42.805,6.029,-0.006,0.008,-0.009,103.0,102.0,101.0,13.4,1505.2,337.1,-0.8,1.8,2471.524,13.29,0.01,323.1
2023-09-22T01:19:03,42.805,6.029,-0.023,0.006,-0.025,104.0,101.0,102.0,13.3,1505.2,336.3,-0.7,1.8,2471.492,13.29,0.023,284.6
2023-09-22T01:22:03,42.805,6.029,-0.018,-0.006,-0.038,101.0,102.0,100.0,13.3,1505.2,330.2,-0.7,1.8,2471.524,13.29,0.018,251.6
2023-09-22T01:25:03,42.805,6.029,-0.013,0.0,-0.029,102.0,102.0,101.0,13.4,1505.2,338.9,-0.8,1.8,2471.465,13.29,0.013,270.0
2023-09-22T01:28:03,42.805,6.029,-0.004,-0.006,-0.01,102.0,102.0,101.0,13.3,1505.2,335.9,-0.8,1.8,2471.482,13.29,0.007,213.7
2023-09-22T01:31:03,42.805,6.029,0.015,-0.005,-0.011,101.0,103.0,102.0,13.4,1505.2,338.5,-0.7,1.8,2471.475,13.29,0.015,108.4
2023-09-22T01:34:03,42.805,6.029,-0.007,0.01,-0.004,101.0,102.0,101.0,13.3,1505.2,349.5,-0.8,1.8,2471.477,13.29,0.012,325.0
2023-09-22T01:37:03,42.805,6.029,0.007,-0.004,-0.03,102.0,102.0,100.0,13.4,1505.2,331.6,-0.8,1.8,2471.462,13.29,0.008,119.7
2023-09-22T01:40:03,42.805,6.029,-0.017,-0.009,-0.014,101.0,103.0,102.0,13.3,1505.2,348.2,-0.8,1.8,2471.466,13.29,0.019,242.1
2023-09-22T01:43:03,42.805,6.029,-0.011,-0.02,-0.032,103.0,100.0,102.0,13.4,1505.2,341.5,-0.8,1.8,2471.448,13.29,0.022,208.8
2023-09-22T01:46:03,42.805,6.029,-0.024,0.0,-0.047,103.0,102.0,101.0,13.4,1505.2,348.8,-0.8,1.8,2471.454,13.29,0.024,270.0
2023-09-22T01:49:03,42.805,6.029,-0.029,-0.021,-0.033,102.0,103.0,101.0,13.4,1505.2,348.1,-0.8,1.8,2471.483,13.29,0.035,234.1
2023-09-22T01:52:03,42.805,6.029,-0.02,-0.011,-0.057,101.0,103.0,102.0,13.3,1505.2,347.4,-0.8,1.8,2471.465,13.29,0.022,241.2
2023-09-22T01:55:03,42.805,6.029,-0.008,0.003,-0.029,102.0,102.0,101.0,13.4,1505.2,352.0,-0.8,1.8,2471.459,13.29,0.008,290.6
2023-09-22T01:58:03,42.805,6.029,-0.001,0.0,-0.008,103.0,101.0,101.0,13.4,1505.2,326.8,-0.8,1.8,2471.453,13.29,0.001,270.0
2023-09-22T02:04:03,42.805,6.029,-0.01,-0.024,-0.058,103.0,100.0,101.0,13.4,1505.2,333.4,-0.8,1.8,2471.538,13.29,0.026,202.6
2023-09-22T02:07:03,42.805,6.029,-0.026,0.017,-0.015,102.0,102.0,102.0,13.4,1505.2,344.5,-0.7,1.8,2471.5,13.29,0.031,303.2
2023-09-22T02:10:03,42.805,6.029,-0.015,-0.005,-0.057,103.0,103.0,100.0,13.4,1505.2,332.9,-0.7,1.8,2471.546,13.29,0.015,251.6
2023-09-22T02:13:03,42.805,6.029,-0.016,0.004,-0.009,101.0,102.0,102.0,13.4,1505.2,349.3,-0.8,1.8,2471.488,13.29,0.016,284.0
2023-09-22T02:16:03,42.805,6.029,-0.001,0.0,-0.013,102.0,102.0,101.0,13.4,1505.2,337.3,-0.7,1.8,2471.484,13.29,0.001,270.0
2023-09-22T02:19:03,42.805,6.029,-0.002,-0.021,-0.056,101.0,103.0,101.0,13.3,1505.2,334.9,-0.8,1.8,2471.493,13.29,0.021,185.4
2023-09-22T02:22:03,42.805,6.029,-0.005,-0.013,-0.044,102.0,102.0,102.0,13.3,1505.2,328.2,-0.8,1.8,2471.539,13.29,0.013,201.0
2023-09-22T02:25:03,42.805,6.029,-0.021,-0.011,-0.033,103.0,101.0,101.0,13.3,1505.2,340.8,-0.8,1.8,2471.466,13.29,0.023,242.4
2023-09-22T02:28:03,42.805,6.029,-0.023,0.009,-0.02,103.0,104.0,100.0,13.4,1505.2,347.8,-0.8,1.9,2471.464,13.29,0.024,291.4
2023-09-22T02:31:03,42.805,6.029,-0.021,0.007,0.0,103.0,101.0,101.0,13.4,1505.2,351.7,-0.7,1.8,2471.441,13.29,0.022,288.4
2023-09-22T02:34:03,42.805,6.029,-0.023,0.018,-0.011,103.0,103.0,102.0,13.4,1505.2,328.5,-0.7,1.8,2471.433,13.29,0.029,308.0
2023-09-22T02:37:03,42.805,6.029,-0.032,0.004,-0.007,102.0,103.0,101.0,13.4,1505.2,335.0,-0.8,1.8,2471.456,13.29,0.032,277.1
2023-09-22T02:40:03,42.805,6.029,-0.049,-0.008,-0.04,103.0,102.0,102.0,13.4,1505.2,329.5,-0.8,1.8,2471.453,13.29,0.049,260.7
2023-09-22T02:43:03,42.805,6.029,-0.016,-0.012,-0.032,103.0,101.0,102.0,13.3,1505.2,342.3,-0.7,1.8,2471.469,13.29,0.02,233.1
2023-09-22T02:46:03,42.805,6.029,-0.028,-0.007,-0.043,103.0,104.0,101.0,13.4,1505.2,333.8,-0.7,1.8,2471.502,13.29,0.028,256.0
2023-09-22T02:49:03,42.805,6.029,-0.031,-0.007,-0.04,103.0,103.0,101.0,13.3,1505.2,338.9,-0.8,1.8,2471.478,13.29,0.031,257.3
2023-09-22T02:52:03,42.805,6.029,-0.034,0.004,-0.032,102.0,102.0,101.0,13.4,1505.2,336.3,-0.8,1.8,2471.481,13.29,0.034,276.7
2023-09-22T02:55:03,42.805,6.029,-0.036,0.017,-0.055,103.0,103.0,101.0,13.4,1505.2,352.0,-0.7,1.8,2471.426,13.29,0.039,295.3
2023-09-22T02:58:03,42.805,6.029,-0.019,0.01,-0.045,102.0,103.0,102.0,13.4,1505.2,341.0,-0.8,1.8,2471.496,13.29,0.021,297.8
2023-09-22T03:04:03,42.805,6.029,0.006,0.01,0.0,102.0,102.0,101.0,13.4,1505.2,347.5,-0.8,1.8,2471.487,13.29,0.011,31.0
2023-09-22T03:07:03,42.805,6.029,-0.025,0.015,-0.016,102.0,102.0,101.0,13.4,1505.2,348.4,-0.7,1.8,2471.496,13.29,0.029,301.0
2023-09-22T03:10:03,42.805,6.029,-0.011,0.012,0.0,102.0,103.0,102.0,13.4,1505.2,332.5,-0.8,1.8,2471.485,13.29,0.016,317.5
2023-09-22T03:13:03,42.805,6.029,-0.034,0.021,-0.006,103.0,102.0,102.0,13.4,1505.2,343.3,-0.8,1.8,2471.495,13.29,0.039,301.7
2023-09-22T03:16:03,42.805,6.029,0.001,0.018,-0.033,103.0,102.0,102.0,13.4,1505.2,330.1,-0.8,1.8,2471.473,13.29,0.018,3.2
2023-09-22T03:19:03,42.805,6.029,-0.034,0.021,-0.045,103.0,103.0,101.0,13.4,1505.2,345.7,-0.7,1.8,2471.483,13.29,0.039,301.7
2023-09-22T03:22:03,42.805,6.029,-0.023,0.0,-0.05,103.0,103.0,100.0,13.4,1505.2,352.2,-0.7,1.8,2471.513,13.29,0.023,270.0
2023-09-22T03:25:03,42.805,6.029,-0.033,-0.008,-0.052,103.0,103.0,101.0,13.4,1505.2,332.1,-0.7,1.8,2471.455,13.29,0.033,256.4
2023-09-22T03:28:03,42.805,6.029,-0.029,0.022,-0.013,103.0,102.0,101.0,13.4,1505.2,337.0,-0.8,1.8,2471.463,13.29,0.036,307.2
2023-09-22T03:31:03,42.805,6.029,-0.012,0.005,-0.057,104.0,103.0,102.0,13.4,1505.2,334.2,-0.8,1.8,2471.473,13.29,0.013,292.6
2023-09-22T03:34:03,42.805,6.029,-0.022,0.01,-0.011,103.0,102.0,101.0,13.4,1505.2,349.2,-0.8,1.8,2471.412,13.29,0.024,294.4
2023-09-22T03:37:03,42.805,6.029,-0.025,-0.008,-0.032,103.0,102.0,102.0,13.3,1505.2,326.3,-0.8,1.8,2471.452,13.29,0.026,252.3
2023-09-22T03:40:03,42.805,6.029,-0.002,0.017,-0.006,103.0,102.0,102.0,13.4,1505.2,343.4,-0.7,1.8,2471.456,13.29,0.017,353.3
2023-09-22T03:43:03,42.805,6.029,-0.009,0.003,-0.004,104.0,102.0,102.0,13.4,1505.2,341.5,-0.8,1.8,2471.451,13.29,0.009,288.4
2023-09-22T03:46:03,42.805,6.029,-0.024,0.029,-0.024,103.0,102.0,102.0,13.4,1505.2,355.9,-0.7,1.8,2471.457,13.29,0.037,320.4
2023-09-22T03:49:03,42.805,6.029,-0.034,0.012,-0.03,103.0,102.0,101.0,13.4,1505.2,333.8,-0.8,1.8,2471.433,13.29,0.036,289.4
2023-09-22T03:52:03,42.805,6.029,-0.026,0.0,-0.045,103.0,103.0,101.0,13.4,1505.2,347.4,-0.8,1.8,2471.484,13.29,0.026,270.0
2023-09-22T03:55:03,42.805,6.029,-0.014,0.007,-0.017,102.0,103.0,102.0,13.4,1505.2,340.9,-0.8,1.8,2471.436,13.29,0.015,296.6
2023-09-22T03:58:03,42.805,6.029,-0.008,0.006,-0.022,103.0,102.0,102.0,13.4,1505.2,338.0,-0.7,1.8,2471.437,13.29,0.01,306.9
2023-09-22T04:04:03,42.805,6.029,-0.02,0.003,-0.042,103.0,103.0,101.0,13.4,1505.2,348.4,-0.8,1.8,2471.5,13.29,0.02,278.5
2023-09-22T04:07:03,42.805,6.029,-0.035,0.013,-0.008,102.0,102.0,102.0,13.3,1505.2,350.9,-0.8,1.8,2471.488,13.29,0.037,290.4
2023-09-22T04:10:03,42.805,6.029,-0.017,0.021,-0.018,103.0,103.0,102.0,13.4,1505.2,350.5,-0.7,1.8,2471.473,13.29,0.027,321.0
2023-09-22T04:13:03,42.805,6.029,-0.016,0.014,-0.035,103.0,103.0,102.0,13.3,1505.2,334.4,-0.8,1.8,2471.48,13.29,0.021,311.2
2023-09-22T04:16:03,42.805,6.029,-0.019,0.001,-0.018,103.0,103.0,101.0,13.4,1505.2,333.4,-0.8,1.8,2471.43,13.29,0.019,273.0
2023-09-22T04:19:03,42.805,6.029,-0.033,0.027,-0.019,103.0,103.0,102.0,13.4,1505.2,332.9,-0.7,1.8,2471.423,13.29,0.042,309.3
2023-09-22T04:22:03,42.805,6.029,-0.031,0.013,-0.018,104.0,102.0,102.0,13.4,1505.2,339.7,-0.8,1.8,2471.456,13.29,0.033,292.7
2023-09-22T04:25:03,42.805,6.029,-0.023,0.019,-0.033,103.0,102.0,101.0,13.4,1505.2,345.2,-0.8,1.8,2471.479,13.29,0.029,309.6
2023-09-22T04:28:03,42.805,6.029,-0.028,0.026,0.0,103.0,102.0,102.0,13.3,1505.2,342.3,-0.8,1.8,2471.428,13.29,0.038,312.9
2023-09-22T04:31:03,42.805,6.029,-0.023,0.007,-0.012,103.0,101.0,101.0,13.3,1505.2,347.6,-0.8,1.8,2471.428,13.29,0.024,286.9
2023-09-22T04:34:03,42.805,6.029,-0.02,0.012,-0.021,102.0,103.0,101.0,13.3,1505.2,346.2,-0.8,1.8,2471.459,13.29,0.023,301.0
2023-09-22T04:37:03,42.805,6.029,-0.033,0.022,-0.04,103.0,103.0,102.0,13.3,1505.2,352.4,-0.8,1.8,2471.441,13.29,0.039,303.7
2023-09-22T04:40:03,42.805,6.029,-0.027,0.02,-0.006,103.0,103.0,102.0,13.4,1505.2,331.5,-0.8,1.8,2471.428,13.29,0.033,306.5
2023-09-22T04:43:03,42.805,6.029,-0.036,0.005,-0.031,103.0,102.0,102.0,13.4,1505.2,332.9,-0.8,1.8,2471.439,13.29,0.036,277.9
2023-09-22T04:46:03,42.805,6.029,-0.011,0.016,-0.002,105.0,101.0,101.0,13.4,1505.2,347.3,-0.8,1.8,2471.449,13.29,0.019,325.5
2023-09-22T04:49:03,42.805,6.029,-0.056,0.007,-0.036,102.0,103.0,102.0,13.4,1505.2,337.8,-0.8,1.8,2471.423,13.29,0.056,277.1
2023-09-22T04:52:03,42.805,6.029,-0.018,0.015,-0.042,103.0,103.0,102.0,13.3,1505.2,343.8,-0.7,1.8,2471.416,13.29,0.023,309.8
2023-09-22T04:55:03,42.805,6.029,-0.028,-0.013,-0.013,104.0,103.0,102.0,13.4,1505.2,331.5,-0.8,1.8,2471.415,13.29,0.03,245.1
2023-09-22T04:58:03,42.805,6.029,-0.017,0.006,0.033,103.0,102.0,102.0,13.4,1505.2,330.1,-0.7,1.8,2471.433,13.29,0.018,289.4
2023-09-22T05:01:03,42.805,6.029,-0.025,0.017,-0.034,103.0,103.0,102.0,13.4,1505.2,346.7,-0.7,1.8,2471.444,13.29,0.03,304.2
2023-09-22T05:04:03,42.805,6.029,-0.03,0.035,-0.015,103.0,103.0,101.0,13.4,1505.2,334.6,-0.8,1.8,2471.429,13.29,0.046,319.4
2023-09-22T05:07:03,42.805,6.029,-0.022,-0.006,-0.048,103.0,102.0,102.0,13.4,1505.2,347.5,-0.7,1.8,2471.411,13.29,0.022,254.7
2023-09-22T05:10:03,42.805,6.029,-0.029,0.017,-0.023,103.0,103.0,102.0,13.4,1505.2,351.0,-0.8,1.8,2471.438,13.29,0.033,300.4
2023-09-22T05:13:03,42.805,6.029,-0.027,0.015,-0.012,103.0,102.0,102.0,13.4,1505.2,342.4,-0.8,1.8,2471.402,13.29,0.03,299.1
2023-09-22T05:16:03,42.805,6.029,-0.021,0.015,0.003,103.0,103.0,102.0,13.4,1505.2,334.4,-0.7,1.8,2471.423,13.29,0.025,305.5
2023-09-22T05:19:03,42.805,6.029,-0.015,0.004,0.012,103.0,103.0,101.0,13.3,1505.2,331.1,-0.7,1.8,2471.431,13.29,0.015,284.9
2023-09-22T05:22:03,42.805,6.029,-0.015,0.022,-0.025,103.0,103.0,101.0,13.3,1505.2,339.1,-0.8,1.8,2471.426,13.29,0.026,325.7
2023-09-22T05:25:03,42.805,6.029,-0.02,0.002,-0.023,105.0,102.0,102.0,13.4,1505.2,336.8,-0.7,1.8,2471.406,13.29,0.02,275.7
2023-09-22T05:28:03,42.805,6.029,-0.031,0.014,-0.012,104.0,102.0,101.0,13.4,1505.2,335.2,-0.7,1.8,2471.43,13.29,0.034,294.3
2023-09-22T05:31:03,42.805,6.029,-0.034,0.029,-0.001,102.0,102.0,102.0,13.4,1505.2,334.6,-0.8,1.8,2471.414,13.29,0.044,310.5
2023-09-22T05:34:03,42.805,6.029,-0.027,0.013,-0.008,103.0,102.0,101.0,13.4,1505.2,341.5,-0.8,1.8,2471.424,13.29,0.029,295.7
2023-09-22T05:37:03,42.805,6.029,-0.019,0.012,0.0,103.0,103.0,101.0,13.4,1505.2,345.9,-0.8,1.8,2471.421,13.29,0.022,302.3
2023-09-22T05:40:03,42.805,6.029,-0.04,0.026,-0.025,104.0,103.0,102.0,13.4,1505.2,345.0,-0.8,1.8,2471.468,13.29,0.047,303.0
2023-09-22T05:43:03,42.805,6.029,-0.02,0.01,-0.024,103.0,102.0,102.0,13.3,1505.2,337.6,-0.8,1.8,2471.449,13.29,0.022,296.6
2023-09-22T05:46:03,42.805,6.029,-0.023,0.011,-0.047,104.0,102.0,101.0,13.4,1505.2,353.1,-0.8,1.8,2471.46,13.29,0.025,295.6
2023-09-22T05:49:03,42.805,6.029,-0.024,-0.002,-0.051,102.0,103.0,102.0,13.4,1505.2,329.4,-0.8,1.8,2471.428,13.29,0.024,265.2
2023-09-22T05:52:03,42.805,6.029,-0.027,0.014,0.014,103.0,104.0,102.0,13.4,1505.2,327.4,-0.8,1.8,2471.412,13.29,0.03,297.4
2023-09-22T05:55:03,42.805,6.029,-0.034,0.013,-0.021,103.0,102.0,102.0,13.3,1505.2,328.8,-0.7,1.8,2471.43,13.29,0.036,290.9
2023-09-22T05:58:03,42.805,6.029,-0.008,0.014,-0.013,103.0,101.0,101.0,13.4,1505.2,346.5,-0.7,1.8,2471.447,13.29,0.016,330.3
2023-09-22T06:04:02,42.805,6.029,-0.013,0.001,-0.023,105.0,103.0,101.0,13.4,1505.2,334.6,-0.8,1.8,2471.461,13.29,0.013,274.4
2023-09-22T06:07:02,42.805,6.029,-0.028,0.043,0.019,103.0,102.0,101.0,13.4,1505.2,343.7,-0.7,1.8,2471.469,13.29,0.051,326.9
2023-09-22T06:10:02,42.805,6.029,-0.011,0.015,-0.036,104.0,102.0,102.0,13.4,1505.2,333.4,-0.7,1.8,2471.479,13.29,0.018,323.7
2023-09-22T06:13:03,42.805,6.029,-0.032,-0.02,-0.065,103.0,103.0,101.0,13.3,1505.2,333.4,-0.8,1.8,2471.456,13.29,0.037,238.0
2023-09-22T06:16:02,42.805,6.029,-0.04,0.006,-0.034,103.0,104.0,100.0,13.3,1505.2,330.0,-0.8,1.8,2471.462,13.29,0.04,278.5
2023-09-22T06:19:03,42.805,6.029,-0.031,-0.002,-0.041,103.0,104.0,101.0,13.4,1505.2,337.6,-0.8,1.8,2471.447,13.29,0.031,266.3
2023-09-22T06:22:02,42.805,6.029,-0.018,-0.016,-0.046,104.0,102.0,102.0,13.4,1505.2,344.2,-0.8,1.8,2471.414,13.29,0.024,228.4
2023-09-22T06:25:02,42.805,6.029,-0.048,0.006,-0.038,103.0,103.0,101.0,13.4,1505.2,329.7,-0.8,1.8,2471.413,13.29,0.048,277.1
2023-09-22T06:28:02,42.805,6.029,-0.012,0.02,-0.018,104.0,101.0,102.0,13.4,1505.2,328.7,-0.8,1.8,2471.419,13.29,0.023,329.0
2023-09-22T06:31:02,42.805,6.029,-0.031,-0.001,-0.035,104.0,102.0,101.0,13.4,1505.2,344.6,-0.8,1.8,2471.427,13.29,0.031,268.2
2023-09-22T06:34:02,42.805,6.029,-0.018,0.015,-0.038,102.0,103.0,102.0,13.3,1505.2,339.4,-0.7,1.8,2471.433,13.29,0.023,309.8
2023-09-22T06:37:02,42.805,6.029,-0.032,0.005,-0.029,102.0,101.0,102.0,13.4,1505.2,334.2,-0.8,1.8,2471.417,13.29,0.032,278.9
2023-09-22T06:40:02,42.805,6.029,-0.029,0.01,-0.043,103.0,102.0,102.0,13.3,1505.2,327.1,-0.8,1.8,2471.398,13.29,0.03,289.0
2023-09-22T06:43:02,42.805,6.029,-0.016,-0.004,-0.011,103.0,102.0,102.0,13.4,1505.2,346.2,-0.8,1.8,2471.413,13.29,0.016,256.0
2023-09-22T06:46:02,42.805,6.029,-0.016,0.002,-0.049,102.0,103.0,103.0,13.4,1505.2,341.2,-0.8,1.8,2471.449,13.29,0.016,277.1
2023-09-22T06:49:02,42.805,6.029,-0.026,0.019,-0.019,103.0,103.0,101.0,13.4,1505.2,354.5,-0.7,1.8,2471.459,13.29,0.032,306.2
2023-09-22T06:52:02,42.805,6.029,-0.03,0.004,-0.015,103.0,102.0,102.0,13.4,1505.2,337.3,-0.8,1.8,2471.437,13.29,0.03,277.6
2023-09-22T06:55:02,42.805,6.029,-0.019,0.029,0.003,103.0,103.0,102.0,13.4,1505.2,336.5,-0.7,1.8,2471.405,13.29,0.034,326.8
2023-09-22T06:58:02,42.805,6.029,-0.005,-0.009,-0.032,101.0,104.0,101.0,13.3,1505.2,328.0,-0.8,1.8,2471.453,13.29,0.01,209.1
2023-09-22T07:04:02,42.805,6.029,-0.013,0.003,-0.031,103.0,102.0,102.0,13.3,1505.2,333.4,-0.7,1.8,2471.469,13.29,0.013,283.0
2023-09-22T07:07:02,42.805,6.029,-0.03,0.019,-0.056,103.0,102.0,102.0,13.4,1505.2,351.0,-0.8,1.8,2471.455,13.29,0.035,302.3
2023-09-22T07:10:02,42.805,6.029,-0.014,0.011,-0.021,102.0,104.0,102.0,13.4,1505.2,329.3,-0.7,1.8,2471.484,13.29,0.017,308.2
2023-09-22T07:13:02,42.805,6.029,-0.028,0.008,-0.072,103.0,102.0,102.0,13.4,1505.2,345.2,-0.8,1.8,2471.463,13.29,0.029,285.9
2023-09-22T07:16:03,42.805,6.029,-0.002,0.04,-0.009,103.0,102.0,102.0,13.4,1505.2,351.8,-0.8,1.8,2471.484,13.29,0.04,357.1
2023-09-22T07:19:02,42.805,6.029,-0.004,0.007,-0.027,104.0,102.0,101.0,13.4,1505.2,341.5,-0.8,1.8,2471.452,13.29,0.008,330.3
2023-09-22T07:22:02,42.805,6.029,-0.033,0.026,-0.048,102.0,103.0,101.0,13.4,1505.2,346.7,-0.8,1.8,2471.452,13.29,0.042,308.2
2023-09-22T07:25:02,42.805,6.029,-0.031,0.041,0.004,103.0,101.0,102.0,13.3,1505.2,342.1,-0.8,1.8,2471.452,13.29,0.051,322.9
2023-09-22T07:28:03,42.805,6.029,-0.027,0.019,-0.023,103.0,103.0,101.0,13.4,1505.2,341.5,-0.8,1.8,2471.484,13.29,0.033,305.1
2023-09-22T07:31:02,42.805,6.029,-0.023,0.017,-0.042,103.0,103.0,101.0,13.3,1505.2,331.1,-0.7,1.8,2471.465,13.29,0.028,306.5
2023-09-22T07:34:02,42.805,6.029,-0.028,0.008,-0.023,103.0,103.0,101.0,13.3,1505.2,341.2,-0.8,1.8,2471.452,13.29,0.029,285.9
2023-09-22T07:37:02,42.805,6.029,-0.022,0.045,-0.045,103.0,102.0,102.0,13.4,1505.2,347.2,-0.8,1.9,2471.418,13.29,0.05,333.9
2023-09-22T07:40:02,42.805,6.029,-0.029,0.026,-0.019,103.0,102.0,101.0,13.4,1505.2,353.2,-0.7,1.8,2471.477,13.29,0.038,311.9
2023-09-22T07:43:02,42.805,6.029,-0.012,0.005,-0.012,103.0,103.0,101.0,13.4,1505.2,357.0,-0.8,1.8,2471.459,13.29,0.013,292.6
2023-09-22T07:46:03,42.805,6.029,-0.01,0.019,-0.027,102.0,104.0,101.0,13.4,1505.2,325.3,-0.7,1.8,2471.447,13.29,0.021,332.2
2023-09-22T07:49:03,42.805,6.029,-0.01,-0.001,-0.005,102.0,102.0,103.0,13.4,1505.2,348.4,-0.7,1.8,2471.459,13.29,0.01,264.3
2023-09-22T07:52:02,42.805,6.029,-0.029,0.019,0.012,103.0,103.0,102.0,13.4,1505.2,344.8,-0.8,1.8,2471.441,13.29,0.034,303.2
2023-09-22T07:55:03,42.805,6.029,-0.026,0.023,-0.045,103.0,103.0,102.0,13.4,1505.2,350.3,-0.8,1.8,2471.495,13.29,0.034,311.5
2023-09-22T07:58:02,42.805,6.029,-0.005,0.003,0.004,103.0,102.0,102.0,13.4,1505.2,345.4,-0.7,1.8,2471.447,13.29,0.005,301.0
2023-09-22T08:04:02,42.805,6.029,0.001,-0.011,-0.021,102.0,103.0,102.0,13.4,1505.2,343.6,-0.7,1.8,2471.506,13.29,0.011,174.8
2023-09-22T08:07:02,42.805,6.029,-0.036,0.004,-0.013,104.0,101.0,101.0,13.4,1505.2,332.9,-0.8,1.8,2471.517,13.29,0.036,276.3
2023-09-22T08:10:03,42.805,6.029,-0.026,0.022,-0.027,102.0,103.0,102.0,13.4,1505.2,337.3,-0.7,1.8,2471.523,13.29,0.034,310.2
2023-09-22T08:13:03,42.805,6.029,0.006,0.038,-0.006,103.0,102.0,101.0,13.3,1505.2,350.7,-0.8,1.8,2471.51,13.29,0.038,9.0
2023-09-22T08:16:03,42.805,6.029,-0.028,0.004,-0.024,102.0,102.0,101.0,13.3,1505.2,329.9,-0.8,1.8,2471.53,13.29,0.028,278.1
2023-09-22T08:19:03,42.805,6.029,0.002,0.0,-0.029,103.0,102.0,100.0,13.4,1505.2,347.2,-0.8,1.9,2471.478,13.29,0.002,90.0
2023-09-22T08:22:02,42.805,6.029,-0.027,0.017,-0.038,102.0,104.0,101.0,13.3,1505.2,338.4,-0.8,1.8,2471.479,13.29,0.031,302.2
2023-09-22T08:25:03,42.805,6.029,-0.035,0.005,-0.037,103.0,102.0,102.0,13.4,1505.2,343.1,-0.8,1.8,2471.515,13.29,0.035,278.1
2023-09-22T08:28:03,42.805,6.029,-0.022,0.038,-0.009,103.0,103.0,102.0,13.3,1505.2,344.3,-0.8,1.8,2471.488,13.29,0.043,329.9
2023-09-22T08:31:03,42.805,6.029,-0.01,0.01,0.015,101.0,103.0,102.0,13.3,1505.2,329.1,-0.8,1.8,2471.533,13.29,0.014,315.0
2023-09-22T08:34:03,42.805,6.029,-0.006,0.025,-0.007,103.0,102.0,102.0,13.4,1505.2,345.7,-0.8,1.8,2471.5,13.29,0.025,346.5
2023-09-22T08:37:02,42.805,6.029,0.0,0.025,-0.018,102.0,102.0,101.0,13.4,1505.2,335.5,-0.8,1.8,2471.491,13.29,0.025,0.0
2023-09-22T08:40:03,42.805,6.029,-0.018,0.021,-0.007,103.0,103.0,101.0,13.4,1505.2,333.8,-0.8,1.8,2471.509,13.29,0.027,319.4
2023-09-22T08:43:03,42.805,6.029,-0.019,-0.016,-0.027,103.0,103.0,102.0,13.3,1505.2,347.3,-0.7,1.8,2471.511,13.29,0.024,229.9
2023-09-22T08:46:03,42.805,6.029,-0.052,0.016,-0.055,103.0,102.0,101.0,13.3,1505.2,330.3,-0.8,1.8,2471.505,13.29,0.054,287.1
2023-09-22T08:49:03,42.805,6.029,-0.032,0.014,-0.021,103.0,102.0,101.0,13.4,1505.2,341.5,-0.8,1.8,2471.515,13.29,0.034,293.6
2023-09-22T08:52:02,42.805,6.029,-0.012,-0.024,-0.04,104.0,102.0,100.0,13.4,1505.2,346.5,-0.7,1.8,2471.506,13.29,0.026,206.6
2023-09-22T08:55:03,42.805,6.029,-0.024,-0.001,-0.044,104.0,102.0,101.0,13.4,1505.2,334.6,-0.7,1.8,2471.522,13.29,0.024,267.6
2023-09-22T08:58:03,42.805,6.029,-0.032,0.018,-0.03,102.0,102.0,101.0,13.4,1505.2,340.4,-0.7,1.8,2471.539,13.29,0.036,299.4
2023-09-22T09:04:02,42.805,6.029,0.001,0.009,-0.033,102.0,103.0,101.0,13.4,1505.2,343.4,-0.8,1.8,2471.559,13.29,0.009,6.3
2023-09-22T09:07:02,42.805,6.029,-0.004,-0.004,-0.047,102.0,103.0,102.0,13.4,1505.2,327.0,-0.7,1.8,2471.532,13.29,0.005,225.0
2023-09-22T09:10:03,42.805,6.029,-0.022,-0.002,-0.019,102.0,102.0,101.0,13.4,1505.2,327.3,-0.8,1.8,2471.528,13.29,0.022,264.8
2023-09-22T09:13:03,42.805,6.029,-0.014,0.007,-0.044,102.0,102.0,101.0,13.3,1505.2,348.2,-0.8,1.8,2471.549,13.29,0.015,296.6
2023-09-22T09:16:03,42.805,6.029,-0.013,0.002,-0.051,103.0,102.0,101.0,13.4,1505.2,338.5,-0.8,1.8,2471.552,13.29,0.013,278.7
2023-09-22T09:19:03,42.805,6.029,-0.012,0.02,-0.018,103.0,102.0,101.0,13.4,1505.2,331.6,-0.7,1.8,2471.569,13.29,0.023,329.0
2023-09-22T09:22:02,42.805,6.029,-0.009,0.019,-0.001,103.0,101.0,102.0,13.4,1505.2,338.5,-0.7,1.8,2471.513,13.29,0.021,334.7
2023-09-22T09:25:03,42.805,6.029,0.006,0.037,-0.001,102.0,103.0,102.0,13.3,1505.2,343.3,-0.8,1.8,2471.53,13.29,0.037,9.2
2023-09-22T09:28:03,42.805,6.029,0.007,0.023,-0.003,103.0,102.0,101.0,13.3,1505.2,334.2,-0.7,1.8,2471.539,13.29,0.024,16.9
2023-09-22T09:31:03,42.805,6.029,-0.01,0.014,-0.022,101.0,102.0,101.0,13.3,1505.2,349.1,-0.8,1.8,2471.544,13.29,0.017,324.5
2023-09-22T09:34:03,42.805,6.029,-0.024,0.012,-0.048,102.0,103.0,101.0,13.4,1505.2,354.5,-0.8,1.8,2471.497,13.29,0.026,296.6
2023-09-22T09:37:02,42.805,6.029,-0.027,0.0,-0.033,102.0,102.0,102.0,13.3,1505.2,325.7,-0.8,1.8,2471.516,13.29,0.026,270.0
2023-09-22T09:40:03,42.805,6.029,-0.015,0.007,-0.017,102.0,102.0,101.0,13.4,1505.2,344.4,-0.8,1.8,2471.541,13.29,0.016,295.0
2023-09-22T09:43:03,42.805,6.029,0.0,-0.01,-0.016,102.0,102.0,102.0,13.4,1505.2,338.5,-0.8,1.8,2471.548,13.29,0.01,180.0
2023-09-22T09:46:03,42.805,6.029,-0.003,0.032,-0.035,103.0,103.0,101.0,13.4,1505.2,348.4,-0.8,1.8,2471.541,13.29,0.032,354.6
2023-09-22T09:49:03,42.805,6.029,-0.026,0.024,-0.034,102.0,102.0,101.0,13.3,1505.2,345.0,-0.8,1.8,2471.52,13.29,0.035,312.7